Weather Roundup
Issued by NWS Chicago, IL

Home | Current Version | Previous Version | Text Only | Print | Product List | Glossary Off
Versions: 1 2 3 4 5 6 7 8 9 10 11 12 13 14 15 16 17 18 19 20 21 22 23 24 25 26 27 28 29 30 31 32 33 34 35 36 37 38 39 40 41 42 43 44 45 46 47 48 49 50

000
NZUS59 KLOT 071903
HRRLOT

CHICAGO AREA WEATHER ROUNDUP
NATIONAL WEATHER SERVICE CHICAGO/ROMEOVILLE IL
100 PM CST WED DEC 07 2016

NOTE: "FAIR" INDICATES FEW OR NO CLOUDS BELOW 12,000 FEET WITH NO
SIGNIFICANT WEATHER AND/OR OBSTRUCTIONS TO VISIBILITY.

* THESE STATIONS ARE NOT UNDER NWS QUALITY CONTROL. THEY ALSO MAY NOT
  REPORT WEATHER SUCH AS PRECIPITATION OR FOG.

ILZ005-006-012>014-019>023-072000-
NORTHEAST ILLINOIS

CITY           SKY/WX    TMP DP  RH WIND       PRES   REMARKS
OHARE          PTSUNNY   27  18  69 W16       30.07F WCI  15
MIDWAY         PTSUNNY   30  18  60 SW14      30.09S WCI  19
AURORA         MOSUNNY   26  19  74 W15       30.10F WCI  14
LANSING*       CLOUDY    28  23  79 W13       30.10F WCI  18
WAUKEGAN       SUNNY     28  18  66 W10G20    30.03S WCI  19
DUPAGE AIRPORT MOSUNNY   25  16  68 W20       30.09S WCI  11
WHEELING       SUNNY     28  17  63 W10       30.08S WCI  19
KANKAKEE*      CLOUDY    30  23  74 W12G17    30.13F WCI  21
NORTHERLY ISL    N/A     31  20  63 W9          N/A  WCI  23
$$

WIZ051-052-058>065-066-070>072-072000-
SOUTHEAST WISCONSIN

CITY           SKY/WX    TMP DP  RH WIND       PRES   REMARKS
MILWAUKEE      CLOUDY    28  15  58 W15G28    30.00S WCI  16
KENOSHA*       MOSUNNY   27  17  66 W18       30.03S WCI  14
RACINE*        MOSUNNY   28  16  60 W15G25    30.03S WCI  16
WAUKESHA       SUNNY     23  16  74 W15       30.01S WCI  10
$$

INZ001>003-010>013-019-020-072000-
NORTHWEST INDIANA

CITY           SKY/WX    TMP DP  RH WIND       PRES   REMARKS
GARY*          PTSUNNY   32  21  64 SW12      30.10S WCI  23
MICHIGAN CITY* NOT AVBL
RENSSELAER*    NOT AVBL
VALPARAISO     CLOUDY    31  21  66 SW14      30.08F WCI  21
$$

LMZ740>746-072000-
SOUTHERN LAKE MICHIGAN

STATION/POSITION TIME  SKY/WX   TEMP WIND        PRES    VSBY
                                AIR  DIR/SP/G
                 (UTC)          (F)  (DEG/KT/KT) (MB)    (MI)
HARRISON CRIB    1840            30  250/ 12/ 14   N/A
BURNHAM HARBOR   1900            31  110/  5/ 15   N/A
CALUMET HARBOR   1830            30  230/ 11/ 15 1018.2S
BURNS HARBOR     1840            30  230/ 10/ 17 1019.0F
MICHIGAN CITY    1840            30  200/ 12/ 15   N/A
$$

ABBREVIATIONS USED IN REMARKS
   TC - TEMPERATURE IN CELSIUS
  WCI - WIND CHILL INDEX
   HX - HEAT INDEX
  VSB - VISIBILITY
$$




USA.gov is the U.S. government's official web portal to all federal, state and local government web resources and services.